Time,TemperatureF,DewpointF,PressureIn,WindDirection,WindDirectionDegrees,WindSpeedMPH,WindSpeedGustMPH,Humidity,HourlyPrecipIn,Conditions,Clouds,dailyrainin,SolarRadiationWatts/m^2,SoftwareType,DateUTC
2013-04-12 00:01:00,43.0,43.0,-100.00,NE,48,0.0,10.0,99,0.00,,,0.03,1.000000,,2013-04-12 07:01:00,
2013-04-12 00:32:00,41.0,41.0,-100.00,ENE,67,0.0,3.0,100,0.00,,,0.03,0.000000,,2013-04-12 07:32:00,
2013-04-12 00:42:00,41.0,41.0,-100.00,ENE,67,0.0,3.0,100,0.00,,,0.03,0.000000,,2013-04-12 07:42:00,
2013-04-12 00:52:00,41.0,41.0,-100.00,ENE,67,0.0,3.0,100,0.00,,,0.03,0.000000,,2013-04-12 07:52:00,
2013-04-12 01:02:00,41.0,41.0,-100.00,ENE,67,0.0,3.0,100,0.00,,,0.03,0.000000,,2013-04-12 08:02:00,
2013-04-12 01:32:00,41.0,41.0,-100.00,ENE,60,0.0,4.0,100,0.00,,,0.03,1.000000,,2013-04-12 08:32:00,
2013-04-12 01:42:00,41.0,41.0,-100.00,ENE,60,0.0,4.0,100,0.00,,,0.03,1.000000,,2013-04-12 08:42:00,
2013-04-12 01:52:00,41.0,41.0,-100.00,ENE,60,0.0,4.0,100,0.00,,,0.03,1.000000,,2013-04-12 08:52:00,
2013-04-12 02:02:00,41.0,41.0,-100.00,ENE,60,0.0,4.0,100,0.00,,,0.03,1.000000,,2013-04-12 09:02:00,
2013-04-12 02:33:00,39.0,39.0,-100.00,ENE,71,0.0,4.0,100,0.00,,,0.03,1.000000,,2013-04-12 09:33:00,
2013-04-12 02:44:00,39.0,39.0,-100.00,ENE,71,0.0,4.0,100,0.00,,,0.03,1.000000,,2013-04-12 09:44:00,
2013-04-12 02:53:00,39.0,39.0,-100.00,ENE,71,0.0,4.0,100,0.00,,,0.03,1.000000,,2013-04-12 09:53:00,
2013-04-12 03:02:00,39.0,39.0,-100.00,ENE,71,0.0,4.0,100,0.00,,,0.03,1.000000,,2013-04-12 10:02:00,
2013-04-12 03:34:00,37.0,37.0,-100.00,NE,36,0.0,5.0,100,0.00,,,0.00,1.000000,,2013-04-12 10:34:00,
2013-04-12 03:42:00,37.0,37.0,-100.00,NE,36,0.0,5.0,100,0.00,,,0.00,1.000000,,2013-04-12 10:42:00,
2013-04-12 03:52:00,37.0,37.0,-100.00,NE,36,0.0,5.0,100,0.00,,,0.00,1.000000,,2013-04-12 10:52:00,
2013-04-12 04:02:00,37.0,37.0,-100.00,NE,36,0.0,5.0,100,0.00,,,0.00,1.000000,,2013-04-12 11:02:00,
2013-04-12 04:33:00,38.0,38.0,-100.00,North,5,0.0,6.0,100,0.00,,,0.00,0.000000,,2013-04-12 11:33:00,
2013-04-12 04:43:00,38.0,38.0,-100.00,North,5,0.0,6.0,100,0.00,,,0.00,0.000000,,2013-04-12 11:43:00,
2013-04-12 04:52:00,38.0,38.0,-100.00,North,5,0.0,6.0,100,0.00,,,0.00,0.000000,,2013-04-12 11:52:00,
2013-04-12 05:02:00,38.0,38.0,-100.00,North,5,0.0,6.0,100,0.00,,,0.00,0.000000,,2013-04-12 12:02:00,
2013-04-12 05:33:00,38.0,38.0,-100.00,ENE,59,0.0,5.0,100,0.00,,,0.00,0.000000,,2013-04-12 12:33:00,
2013-04-12 05:42:00,38.0,38.0,-100.00,ENE,59,0.0,5.0,100,0.00,,,0.00,0.000000,,2013-04-12 12:42:00,
2013-04-12 06:03:00,38.0,38.0,-100.00,ENE,59,0.0,5.0,100,0.00,,,0.00,0.000000,,2013-04-12 13:03:00,
2013-04-12 06:32:00,38.0,38.0,-100.00,ESE,120,0.0,6.0,100,0.00,,,0.00,0.000000,,2013-04-12 13:32:00,
2013-04-12 06:43:00,38.0,38.0,-100.00,ESE,120,0.0,6.0,100,0.00,,,0.00,0.000000,,2013-04-12 13:43:00,
2013-04-12 06:53:00,38.0,38.0,-100.00,ESE,120,0.0,6.0,100,0.00,,,0.00,0.000000,,2013-04-12 13:53:00,
2013-04-12 07:02:00,38.0,38.0,-100.00,ESE,120,0.0,6.0,100,0.00,,,0.00,0.000000,,2013-04-12 14:02:00,
2013-04-12 07:33:00,37.0,37.0,-100.00,East,81,0.0,5.0,100,0.00,,,0.00,7.000000,,2013-04-12 14:33:00,
2013-04-12 07:43:00,37.0,37.0,-100.00,East,81,0.0,5.0,100,0.00,,,0.00,7.000000,,2013-04-12 14:43:00,
2013-04-12 07:53:00,37.0,37.0,-100.00,East,81,0.0,5.0,100,0.00,,,0.00,7.000000,,2013-04-12 14:53:00,
2013-04-12 08:02:00,37.0,37.0,-100.00,East,81,0.0,5.0,100,0.00,,,0.00,7.000000,,2013-04-12 15:02:00,
2013-04-12 08:33:00,40.0,40.0,-100.00,ENE,58,0.0,5.0,100,0.00,,,-99.99,68.000000,,2013-04-12 15:33:00,
2013-04-12 08:43:00,40.0,40.0,-100.00,ENE,58,0.0,5.0,100,0.00,,,-99.99,68.000000,,2013-04-12 15:43:00,
2013-04-12 08:53:00,40.0,40.0,-100.00,ENE,58,0.0,5.0,100,0.00,,,-99.99,68.000000,,2013-04-12 15:53:00,
2013-04-12 09:03:00,40.0,40.0,-100.00,ENE,58,0.0,5.0,100,0.00,,,-99.99,68.000000,,2013-04-12 16:03:00,
2013-04-12 09:33:00,43.0,43.0,-100.00,NE,36,3.0,6.0,100,0.00,,,-99.99,190.000000,,2013-04-12 16:33:00,
2013-04-12 09:43:00,43.0,43.0,-100.00,NE,36,3.0,6.0,100,0.00,,,-99.99,190.000000,,2013-04-12 16:43:00,
2013-04-12 09:53:00,43.0,43.0,-100.00,NE,36,3.0,6.0,100,0.00,,,-99.99,190.000000,,2013-04-12 16:53:00,
2013-04-12 10:03:00,43.0,43.0,-100.00,NE,36,3.0,6.0,100,0.00,,,-99.99,190.000000,,2013-04-12 17:03:00,
2013-04-12 10:04:00,52.0,45.0,-100.00,NE,38,2.0,6.0,78,0.00,,,0.00,464.000000,,2013-04-12 17:04:00,
2013-04-12 10:34:00,52.0,45.0,-100.00,NE,38,2.0,6.0,78,0.00,,,0.00,464.000000,,2013-04-12 17:34:00,
2013-04-12 10:46:00,52.0,45.0,-100.00,NE,38,2.0,6.0,78,0.00,,,0.00,464.000000,,2013-04-12 17:46:00,
2013-04-12 11:02:00,52.0,45.0,-100.00,NE,38,2.0,6.0,78,0.00,,,0.00,464.000000,,2013-04-12 18:02:00,
2013-04-12 12:33:00,51.0,43.0,-100.00,NW,309,6.0,10.0,73,0.00,,,0.00,518.000000,,2013-04-12 19:33:00,
2013-04-12 12:43:00,51.0,43.0,-100.00,NW,309,6.0,10.0,73,0.00,,,0.00,518.000000,,2013-04-12 19:43:00,
2013-04-12 12:53:00,51.0,43.0,-100.00,NW,309,6.0,10.0,73,0.00,,,0.00,518.000000,,2013-04-12 19:53:00,
2013-04-12 13:02:00,51.0,43.0,-100.00,NW,309,6.0,10.0,73,0.00,,,0.00,518.000000,,2013-04-12 20:02:00,
2013-04-12 13:33:00,52.0,43.0,-100.00,West,278,5.0,10.0,70,0.00,,,0.00,625.000000,,2013-04-12 20:33:00,
2013-04-12 13:43:00,52.0,43.0,-100.00,West,278,5.0,10.0,70,0.00,,,0.00,625.000000,,2013-04-12 20:43:00,
2013-04-12 13:52:00,52.0,43.0,-100.00,West,278,5.0,10.0,70,0.00,,,0.00,625.000000,,2013-04-12 20:52:00,
2013-04-12 14:02:00,52.0,43.0,-100.00,West,278,5.0,10.0,70,0.00,,,0.00,625.000000,,2013-04-12 21:02:00,
2013-04-12 14:33:00,54.0,44.0,-100.00,WNW,297,4.0,12.0,70,0.00,,,0.00,701.000000,,2013-04-12 21:33:00,
2013-04-12 14:43:00,54.0,44.0,-100.00,WNW,297,4.0,12.0,70,0.00,,,0.00,701.000000,,2013-04-12 21:43:00,
2013-04-12 14:52:00,54.0,44.0,-100.00,WNW,297,4.0,12.0,70,0.00,,,0.00,701.000000,,2013-04-12 21:52:00,
2013-04-12 15:02:00,54.0,44.0,-100.00,WNW,297,4.0,12.0,70,0.00,,,0.00,701.000000,,2013-04-12 22:02:00,
2013-04-12 15:33:00,52.0,42.0,-100.00,WSW,249,4.0,10.0,69,0.00,,,0.00,572.000000,,2013-04-12 22:33:00,
2013-04-12 15:43:00,52.0,42.0,-100.00,WSW,249,4.0,10.0,69,0.00,,,0.00,572.000000,,2013-04-12 22:43:00,
2013-04-12 15:52:00,52.0,42.0,-100.00,WSW,249,4.0,10.0,69,0.00,,,0.00,572.000000,,2013-04-12 22:52:00,
2013-04-12 16:03:00,52.0,42.0,-100.00,WSW,249,4.0,10.0,69,0.00,,,0.00,572.000000,,2013-04-12 23:03:00,
2013-04-12 16:22:00,52.0,42.0,-100.00,NNW,336,4.0,11.0,68,0.00,,,0.00,454.000000,,2013-04-12 23:22:00,
2013-04-12 16:32:00,52.0,42.0,-100.00,NNW,336,4.0,11.0,68,0.00,,,0.00,454.000000,,2013-04-12 23:32:00,
2013-04-12 16:42:00,52.0,42.0,-100.00,NNW,336,4.0,11.0,68,0.00,,,0.00,454.000000,,2013-04-12 23:42:00,
2013-04-12 16:52:00,52.0,42.0,-100.00,NNW,336,4.0,11.0,68,0.00,,,0.00,454.000000,,2013-04-12 23:52:00,
2013-04-12 17:01:00,52.0,42.0,-100.00,NNW,336,4.0,11.0,68,0.00,,,0.00,454.000000,,2013-04-13 00:01:00,
2013-04-12 17:32:00,50.0,42.0,-100.00,SSW,207,5.0,10.0,73,0.00,,,-99.99,301.000000,,2013-04-13 00:32:00,
2013-04-12 17:42:00,50.0,42.0,-100.00,SSW,207,5.0,10.0,73,0.00,,,-99.99,301.000000,,2013-04-13 00:42:00,
2013-04-12 17:52:00,50.0,42.0,-100.00,SSW,207,5.0,10.0,73,0.00,,,-99.99,301.000000,,2013-04-13 00:52:00,
2013-04-12 18:02:00,50.0,42.0,-100.00,SSW,207,5.0,10.0,73,0.00,,,-99.99,301.000000,,2013-04-13 01:02:00,
2013-04-12 18:33:00,49.0,42.0,-100.00,SSW,198,6.0,12.0,77,0.00,,,0.00,147.000000,,2013-04-13 01:33:00,
2013-04-12 18:43:00,49.0,42.0,-100.00,SSW,198,6.0,12.0,77,0.00,,,0.00,147.000000,,2013-04-13 01:43:00,
2013-04-12 18:52:00,49.0,42.0,-100.00,SSW,198,6.0,12.0,77,0.00,,,0.00,147.000000,,2013-04-13 01:52:00,
2013-04-12 19:02:00,49.0,42.0,-100.00,SSW,198,6.0,12.0,77,0.00,,,0.00,147.000000,,2013-04-13 02:02:00,
2013-04-12 19:23:00,46.0,46.0,-100.00,SSW,198,7.0,14.0,100,0.01,,,0.01,33.000000,,2013-04-13 02:23:00,
2013-04-12 19:33:00,46.0,46.0,-100.00,SSW,198,7.0,14.0,100,0.01,,,0.01,33.000000,,2013-04-13 02:33:00,
2013-04-12 19:43:00,46.0,46.0,-100.00,SSW,198,7.0,14.0,100,0.01,,,0.01,33.000000,,2013-04-13 02:43:00,
2013-04-12 19:53:00,46.0,46.0,-100.00,SSW,198,7.0,14.0,100,0.01,,,0.01,33.000000,,2013-04-13 02:53:00,
2013-04-12 20:02:00,46.0,46.0,-100.00,SSW,198,7.0,14.0,100,0.01,,,0.01,33.000000,,2013-04-13 03:02:00,
2013-04-12 20:33:00,46.0,46.0,-100.00,SSW,198,7.0,14.0,100,0.01,,,0.02,8.000000,,2013-04-13 03:33:00,
2013-04-12 20:43:00,46.0,46.0,-100.00,SSW,198,7.0,14.0,100,0.01,,,0.02,8.000000,,2013-04-13 03:43:00,
2013-04-12 20:53:00,46.0,46.0,-100.00,SSW,198,7.0,14.0,100,0.01,,,0.02,8.000000,,2013-04-13 03:53:00,
2013-04-12 21:02:00,46.0,46.0,-100.00,SSW,198,7.0,14.0,100,0.01,,,0.02,8.000000,,2013-04-13 04:02:00,
2013-04-12 21:33:00,46.0,46.0,-100.00,SSW,192,9.0,18.0,100,0.01,,,0.03,1.000000,,2013-04-13 04:33:00,
2013-04-12 21:42:00,46.0,46.0,-100.00,SSW,192,9.0,18.0,100,0.01,,,0.03,1.000000,,2013-04-13 04:42:00,
2013-04-12 21:53:00,46.0,46.0,-100.00,SSW,192,9.0,18.0,100,0.01,,,0.03,1.000000,,2013-04-13 04:53:00,
2013-04-12 22:02:00,46.0,46.0,-100.00,SSW,192,9.0,18.0,100,0.01,,,0.03,1.000000,,2013-04-13 05:02:00,
2013-04-12 22:32:00,48.0,48.0,-100.00,NW,311,7.0,17.0,100,0.02,,,0.05,1.000000,,2013-04-13 05:32:00,
2013-04-12 22:43:00,48.0,48.0,-100.00,NW,311,7.0,17.0,100,0.02,,,0.05,1.000000,,2013-04-13 05:43:00,
2013-04-12 22:52:00,48.0,48.0,-100.00,NW,311,7.0,17.0,100,0.02,,,0.05,1.000000,,2013-04-13 05:52:00,
2013-04-12 23:01:00,48.0,48.0,-100.00,NW,311,7.0,17.0,100,0.02,,,0.05,1.000000,,2013-04-13 06:01:00,
2013-04-12 23:36:00,46.0,43.0,-100.00,NNW,334,8.0,21.0,88,0.01,,,-99.99,1.000000,,2013-04-13 06:36:00,
2013-04-12 23:49:00,46.0,43.0,-100.00,NNW,334,8.0,21.0,88,0.01,,,-99.99,1.000000,,2013-04-13 06:49:00,
2013-04-12 23:54:00,46.0,43.0,-100.00,NNW,334,8.0,21.0,88,0.01,,,-99.99,1.000000,,2013-04-13 06:54:00,